ESH weather

Shoreham Airport
Brighton, England, United Kingdom

Public forecast

Using degrees Celsius for public forecast. Weather courtesy of forecast.io.

Current aviation weather report (METAR) for Shoreham Airport

Retrieved 2019/11/11 19:20 UTC (28 minutes ago):

EGKA 111920Z 26011KT CAVOK 06/03 Q1003

Aviation forecast (TAF) for Shoreham Airport

Forecast is more than 12 hours old.

Retrieved 2016/03/02 12:00 UTC (4 years ago):

TAF EGKA 021104Z 0212/0221 25015G25KT 9999 SCT020 TEMPO 0212/0216 25025G38KT 5000 SHRA BKN012CB PROB30 TEMPO 0212/0215 2500 +SHGS +SHRASN TEMPO 0216/0221 29025G35KT TEMPO 0218/0221 BKN014